Total_Precipitation_Accumulation
0.08 0.10 0.12 0.12 0.13 0.13 0.16 0.23 0.26 0.17 0.06 0.03 0.02 0.01 0.02 0.02 0.02 0.04 0.03 0.03 0.03 0.04 0.06 0.07 0.08 0.11 0.14 0.17 0.22 0.28 0.34 0.38 0.44 0.50 0.58 0.68 0.78 0.89
0.04 0.07 0.09 0.10 0.11 0.13 0.13 0.15 0.22 0.26 0.15 0.04 0.04 0.03 0.05 0.04 0.04 0.07 0.07 0.07 0.08 0.09 0.09 0.09 0.10 0.10 0.12 0.15 0.19 0.22 0.25 0.28 0.32 0.37 0.43 0.48 0.55 0.66
0.03 0.05 0.07 0.09 0.11 0.11 0.12 0.13 0.15 0.21 0.20 0.07 0.05 0.06 0.07 0.05 0.04 0.09 0.09 0.09 0.09 0.11 0.14 0.15 0.18 0.18 0.18 0.18 0.18 0.18 0.20 0.22 0.27 0.32 0.38 0.43 0.48 0.51
0.01 0.02 0.04 0.06 0.08 0.11 0.13 0.13 0.13 0.16 0.22 0.16 0.06 0.05 0.06 0.07 0.08 0.10 0.11 0.13 0.12 0.13 0.17 0.22 0.26 0.28 0.26 0.24 0.22 0.21 0.20 0.21 0.23 0.26 0.30 0.35 0.42 0.47
0.01 0.01 0.01 0.02 0.02 0.05 0.08 0.11 0.13 0.17 0.24 0.27 0.15 0.11 0.11 0.10 0.12 0.11 0.13 0.15 0.15 0.16 0.19 0.22 0.25 0.27 0.27 0.27 0.26 0.25 0.24 0.25 0.26 0.28 0.29 0.32 0.36 0.42
0.00 0.01 0.01 0.01 0.02 0.03 0.06 0.09 0.15 0.19 0.23 0.27 0.23 0.17 0.15 0.13 0.15 0.14 0.14 0.15 0.17 0.19 0.22 0.23 0.25 0.26 0.26 0.27 0.27 0.27 0.26 0.29 0.34 0.40 0.44 0.45 0.45 0.45
0.00 0.00 0.00 0.00 0.01 0.03 0.07 0.10 0.15 0.19 0.23 0.27 0.27 0.23 0.20 0.19 0.17 0.18 0.23 0.23 0.23 0.21 0.23 0.23 0.27 0.31 0.34 0.37 0.39 0.38 0.38 0.41 0.46 0.51 0.54 0.55 0.55 0.54
0.00 0.00 0.00 0.00 0.01 0.04 0.07 0.10 0.14 0.19 0.23 0.28 0.30 0.29 0.25 0.26 0.30 0.35 0.40 0.43 0.38 0.27 0.32 0.38 0.44 0.51 0.52 0.53 0.58 0.58 0.56 0.55 0.55 0.56 0.57 0.57 0.57 0.60
0.00 0.00 0.00 0.01 0.03 0.04 0.05 0.07 0.08 0.12 0.19 0.24 0.24 0.21 0.20 0.21 0.29 0.35 0.40 0.44 0.42 0.37 0.44 0.51 0.49 0.51 0.51 0.54 0.62 0.60 0.55 0.51 0.51 0.52 0.54 0.54 0.52 0.54
0.00 0.00 0.01 0.02 0.02 0.06 0.09 0.09 0.06 0.05 0.07 0.09 0.11 0.11 0.15 0.20 0.29 0.37 0.47 0.55 0.50 0.42 0.41 0.47 0.41 0.39 0.38 0.40 0.47 0.48 0.45 0.43 0.43 0.44 0.44 0.44 0.42 0.42
0.00 0.01 0.02 0.02 0.03 0.09 0.13 0.11 0.07 0.03 0.03 0.05 0.09 0.11 0.13 0.17 0.23 0.37 0.53 0.63 0.55 0.37 0.31 0.37 0.38 0.38 0.36 0.33 0.36 0.42 0.41 0.40 0.39 0.37 0.37 0.36 0.36 0.37
0.02 0.01 0.02 0.03 0.07 0.12 0.12 0.11 0.08 0.04 0.04 0.05 0.05 0.05 0.04 0.06 0.15 0.29 0.54 0.75 0.64 0.46 0.32 0.37 0.39 0.42 0.45 0.34 0.31 0.35 0.34 0.33 0.31 0.30 0.29 0.28 0.28 0.26
0.05 0.03 0.02 0.05 0.10 0.11 0.10 0.06 0.07 0.11 0.09 0.05 0.05 0.04 0.04 0.04 0.07 0.15 0.32 0.64 0.79 0.64 0.44 0.46 0.49 0.44 0.44 0.36 0.31 0.31 0.31 0.33 0.35 0.33 0.31 0.28 0.24 0.19
0.07 0.04 0.04 0.08 0.09 0.06 0.04 0.04 0.08 0.09 0.05 0.04 0.06 0.06 0.07 0.11 0.15 0.20 0.25 0.36 0.54 0.65 0.54 0.52 0.56 0.47 0.44 0.38 0.33 0.33 0.35 0.41 0.45 0.43 0.39 0.37 0.31 0.29
0.07 0.08 0.09 0.07 0.04 0.02 0.02 0.05 0.05 0.04 0.08 0.13 0.12 0.12 0.14 0.21 0.26 0.29 0.30 0.33 0.39 0.45 0.47 0.47 0.51 0.48 0.46 0.40 0.33 0.36 0.42 0.48 0.56 0.57 0.47 0.36 0.31 0.31
0.09 0.09 0.05 0.02 0.02 0.02 0.02 0.02 0.03 0.07 0.15 0.20 0.18 0.15 0.16 0.23 0.28 0.36 0.45 0.47 0.52 0.52 0.50 0.45 0.43 0.42 0.37 0.32 0.32 0.35 0.42 0.53 0.61 0.67 0.57 0.41 0.34 0.29
0.10 0.04 0.01 0.01 0.02 0.02 0.01 0.01 0.02 0.05 0.11 0.15 0.18 0.20 0.21 0.30 0.40 0.51 0.61 0.65 0.65 0.61 0.54 0.42 0.34 0.29 0.28 0.27 0.27 0.30 0.36 0.47 0.57 0.61 0.53 0.43 0.40 0.34
0.06 0.02 0.02 0.03 0.04 0.04 0.04 0.04 0.04 0.07 0.14 0.21 0.23 0.26 0.31 0.40 0.52 0.61 0.72 0.73 0.66 0.55 0.45 0.36 0.28 0.22 0.22 0.22 0.25 0.29 0.33 0.43 0.52 0.52 0.39 0.28 0.34 0.33
0.03 0.03 0.04 0.04 0.04 0.05 0.06 0.09 0.10 0.12 0.21 0.32 0.37 0.40 0.44 0.51 0.61 0.68 0.71 0.65 0.53 0.42 0.33 0.26 0.20 0.19 0.19 0.18 0.19 0.25 0.31 0.36 0.38 0.39 0.32 0.19 0.22 0.24
0.04 0.05 0.04 0.04 0.05 0.07 0.10 0.15 0.19 0.22 0.29 0.39 0.46 0.49 0.52 0.58 0.66 0.66 0.60 0.50 0.38 0.28 0.19 0.13 0.11 0.12 0.14 0.15 0.17 0.25 0.27 0.26 0.20 0.19 0.20 0.17 0.19 0.19
0.04 0.04 0.03 0.04 0.06 0.08 0.12 0.18 0.27 0.36 0.43 0.52 0.55 0.57 0.58 0.63 0.65 0.58 0.44 0.30 0.19 0.12 0.07 0.05 0.05 0.07 0.09 0.10 0.13 0.20 0.28 0.27 0.17 0.12 0.10 0.09 0.11 0.13
0.04 0.04 0.04 0.04 0.07 0.10 0.15 0.23 0.32 0.39 0.45 0.52 0.57 0.57 0.57 0.57 0.50 0.35 0.20 0.11 0.07 0.05 0.04 0.03 0.02 0.02 0.04 0.06 0.09 0.13 0.17 0.20 0.17 0.10 0.06 0.05 0.06 0.08
0.04 0.05 0.05 0.05 0.08 0.13 0.19 0.26 0.36 0.43 0.47 0.53 0.55 0.52 0.46 0.36 0.21 0.10 0.05 0.04 0.04 0.04 0.03 0.02 0.01 0.01 0.02 0.04 0.06 0.08 0.10 0.10 0.09 0.08 0.08 0.06 0.05 0.06